TimeCDT,TemperatureF,Dew PointF,Humidity,Sea Level PressureIn,VisibilityMPH,Wind Direction,Wind SpeedMPH,Gust SpeedMPH,PrecipitationIn,Events,Conditions,WindDirDegrees,DateUTC
12:53 AM,45.0,35.1,68,30.17,10.0,NW,9.2,-,N/A,,Clear,320,2012-04-22 05:53:00
1:53 AM,44.1,34.0,68,30.19,10.0,NNW,11.5,19.6,N/A,,Clear,340,2012-04-22 06:53:00
2:53 AM,39.9,34.0,79,30.20,10.0,NW,10.4,-,N/A,,Clear,320,2012-04-22 07:53:00
3:53 AM,37.9,33.1,83,30.22,10.0,NW,9.2,-,N/A,,Clear,320,2012-04-22 08:53:00
4:53 AM,37.9,33.1,83,30.24,10.0,NW,10.4,-,N/A,,Clear,310,2012-04-22 09:53:00
5:53 AM,37.0,33.1,86,30.25,10.0,NW,10.4,-,N/A,,Clear,320,2012-04-22 10:53:00
6:53 AM,36.0,33.1,89,30.27,10.0,WNW,12.7,-,N/A,,Clear,300,2012-04-22 11:53:00
7:53 AM,37.9,34.0,86,30.30,10.0,NW,10.4,-,N/A,,Clear,310,2012-04-22 12:53:00
8:53 AM,42.1,35.1,76,30.31,10.0,NW,16.1,-,N/A,,Clear,320,2012-04-22 13:53:00
9:53 AM,48.0,37.0,66,30.32,10.0,NNW,19.6,-,N/A,,Clear,330,2012-04-22 14:53:00
10:53 AM,51.1,35.1,54,30.32,10.0,North,17.3,25.3,N/A,,Clear,360,2012-04-22 15:53:00
11:53 AM,54.0,36.0,51,30.32,10.0,NNW,15.0,25.3,N/A,,Clear,340,2012-04-22 16:53:00
12:53 PM,55.9,34.0,44,30.31,10.0,North,16.1,19.6,N/A,,Clear,360,2012-04-22 17:53:00
1:53 PM,57.0,33.1,40,30.30,10.0,NNE,10.4,23.0,N/A,,Clear,20,2012-04-22 18:53:00
2:53 PM,59.0,34.0,39,30.29,10.0,North,12.7,18.4,N/A,,Clear,360,2012-04-22 19:53:00
3:53 PM,59.0,33.1,38,30.28,10.0,North,9.2,20.7,N/A,,Clear,10,2012-04-22 20:53:00
4:53 PM,60.1,33.1,36,30.27,10.0,NNW,9.2,18.4,N/A,,Clear,330,2012-04-22 21:53:00
5:53 PM,60.1,30.9,33,30.26,10.0,NNE,11.5,-,N/A,,Clear,20,2012-04-22 22:53:00
6:53 PM,59.0,30.9,35,30.26,10.0,North,9.2,-,N/A,,Clear,360,2012-04-22 23:53:00
7:53 PM,55.9,33.1,42,30.26,10.0,NNE,5.8,-,N/A,,Clear,20,2012-04-23 00:53:00
8:53 PM,50.0,33.1,52,30.27,10.0,NE,3.5,-,N/A,,Clear,50,2012-04-23 01:53:00
9:53 PM,41.0,34.0,76,30.29,10.0,Calm,Calm,-,N/A,,Clear,0,2012-04-23 02:53:00
10:53 PM,37.9,30.9,76,30.30,10.0,Calm,Calm,-,N/A,,Clear,0,2012-04-23 03:53:00
11:53 PM,36.0,30.9,82,30.29,10.0,Calm,Calm,-,N/A,,Clear,0,2012-04-23 04:53:00